Inquirer Daily News

Weather

Get conditions and forecasts for any City, State, ZIP code or Country:  
Trenton, NJ
on Wednesday, February 6, 2013

Wednesday
Previous Day Next Day
Daily Summary
 ActualAverageRecord
Temperature
Mean Temperature °F 32°F  
Max Temperature 39°F 40°F 64°F (1938)
Min Temperature 24°F 25°F -4°F (1895)
Degree Days
Heating Degree Days 33 33  
Month to date heating degree days 225 198  
Since 1 July heating degree days 2933 3144  
Cooling Degree Days 0 0  
Month to date cooling degree days 0 0  
Year to date cooling degree days 0 0  
Moisture
Dew Point 23°F   
Average Humidity 70    
Maximum Humidity 92    
Minimum Humidity 48    
Precipitation
Precipitation 0.01 in 0.07 in 1.79 in (1896)
Month to date precipitation 0.04 0.42  
Year to date precipitation 2.86 3.58  
Snow
Snow 0.00 in in in ()
Month to date snowfall  
Since 1 July snowfall  
Snow Depth in   
Wind
Wind Speed 6 mph   
Max Wind Speed 16 mph   
Max Gust Speed 24 mph   
Visibility 6 miles   
Events Fog , Snow   

Key: T is trace of precipitation, MM is missing value
Source: NWS Daily Summary
Time(EST)TemperatureDew PointHumidity Pressure Visibility Wind DirectionWind SpeedGust SpeedPrecipitationEvents Conditions
12:53 AM 30.9°F 28.0°F 89% 29.91 in 3.0 miles NNW 3.5 mph - N/A   Overcast
1:16 AM 30.2°F 28.4°F 93% 29.92 in 2.5 miles NNW 4.6 mph - 0.01 in Snow Light Snow
1:43 AM 30.2°F 28.4°F 93% 29.93 in 3.0 miles Calm Calm - 0.01 in   Overcast
1:53 AM 30.0°F 28.0°F 92% 29.92 in 3.0 miles Calm Calm - 0.01 in   Overcast
2:13 AM 30.2°F 28.4°F 93% 29.93 in 2.5 miles Calm Calm - N/A   Overcast
2:30 AM 30.2°F 26.6°F 86% 29.93 in 2.5 miles Calm Calm - N/A   Mostly Cloudy
2:53 AM 28.0°F 26.1°F 92% 29.92 in 2.5 miles Calm Calm - N/A   Partly Cloudy
3:50 AM 26.6°F 24.8°F 93% 29.94 in 1.5 miles Calm Calm - N/A   Clear
3:53 AM 26.1°F 24.1°F 92% 29.93 in 1.5 miles North 3.5 mph - N/A   Clear
4:48 AM 24.8°F 23.0°F 93% 29.96 in 0.8 miles Calm Calm - N/A   Clear
4:53 AM 25.0°F 23.0°F 92% 29.95 in 0.5 miles Calm Calm - N/A Fog Light Freezing Fog
5:00 AM 24.8°F 23.0°F 93% 29.96 in 0.8 miles Calm Calm - N/A   Mist
5:05 AM 26.6°F 24.8°F 93% 29.97 in 1.0 miles Calm Calm - N/A   Clear
5:30 AM 24.8°F 23.0°F 93% 29.99 in 1.0 miles WSW 4.6 mph - N/A   Mist
5:37 AM 24.8°F 23.0°F 93% 29.99 in 0.5 miles Calm Calm - N/A Fog Light Freezing Fog
5:48 AM 24.8°F 23.0°F 93% 30.00 in 0.8 miles Calm Calm - N/A   Mostly Cloudy
5:53 AM 25.0°F 23.0°F 92% 29.99 in 2.0 miles Calm Calm - N/A   Mostly Cloudy
6:09 AM 26.6°F 24.8°F 93% 30.01 in 3.0 miles NW 5.8 mph - N/A   Scattered Clouds
6:53 AM 28.0°F 25.0°F 88% 30.02 in 5.0 miles West 4.6 mph - N/A   Overcast
7:53 AM 28.9°F 25.0°F 85% 30.07 in 4.0 miles WNW 5.8 mph - N/A   Partly Cloudy
8:53 AM 30.9°F 24.1°F 76% 30.09 in 5.0 miles NW 8.1 mph - N/A   Haze
9:53 AM 35.1°F 23.0°F 61% 30.11 in 10.0 miles NNW 11.5 mph 18.4 mph N/A   Mostly Cloudy
10:53 AM 37.0°F 24.1°F 59% 30.12 in 10.0 miles NW 10.4 mph - N/A   Mostly Cloudy
11:53 AM 36.0°F 21.0°F 55% 30.12 in 10.0 miles NW 11.5 mph 19.6 mph N/A   Overcast
12:53 PM 37.0°F 21.0°F 52% 30.12 in 10.0 miles NW 11.5 mph 20.7 mph N/A   Overcast
1:53 PM 37.0°F 21.0°F 52% 30.13 in 10.0 miles NW 10.4 mph 18.4 mph N/A   Overcast
2:53 PM 37.9°F 19.0°F 47% 30.14 in 10.0 miles NW 16.1 mph 19.6 mph N/A   Scattered Clouds
3:53 PM 37.9°F 19.9°F 48% 30.16 in 10.0 miles NW 10.4 mph 17.3 mph N/A   Partly Cloudy
4:53 PM 37.9°F 19.9°F 48% 30.19 in 10.0 miles NW 10.4 mph - N/A   Mostly Cloudy
5:53 PM 35.1°F 19.0°F 52% 30.22 in 10.0 miles NNW 5.8 mph - N/A   Clear
6:53 PM 34.0°F 19.0°F 54% 30.24 in 10.0 miles NNW 3.5 mph - N/A   Clear
7:53 PM 32.0°F 18.0°F 56% 30.27 in 10.0 miles NW 3.5 mph - N/A   Clear
8:53 PM 30.9°F 17.1°F 57% 30.29 in 10.0 miles North 3.5 mph - N/A   Clear
9:53 PM 28.9°F 15.1°F 56% 30.31 in 10.0 miles North 3.5 mph - N/A   Clear
10:53 PM 28.0°F 14.0°F 56% 30.33 in 10.0 miles North 3.5 mph - N/A   Clear
11:53 PM 27.0°F 12.9°F 56% 30.34 in 10.0 miles Calm Calm - N/A   Clear
Astronomy
Sunrise:07:02 AM (EST) Moon Rise:03:44 AM (EST)2/6
Sunset:05:24 PM (EST) Moon Set:01:39 PM (EST)2/6
Moon Phase
Feb. 06 Feb. 10 Feb. 17 Feb. 25 Mar. 04

Copyright © 2014 The Weather Underground, Inc.